User: anonymous   Login
Location: Castelbiague
(43.0361°N, 0.9246°E)
Time: 20:05:48
(UTC+00:00)
Language:

Cosmos 1455 - Orbit

View from above orbital plane
View from above orbital plane
View from above satellite
View from above satellite

Ground track
Ground track

The orbit data is extracted from the following two-line orbital elements,

1 14032U 83037A   21270.46481395  .00001469  00000-0  68395-4 0  9998
2 14032  82.5175 341.3175 0015327 238.4444 121.5294 15.19037268 98295
Epoch (UTC): 27 September 2021 11:09:19
Eccentricity: 0.0015327
inclination: 82.5175°
perigee height: 498 km
apogee height: 519 km
right ascension of ascending node: 341.3175°
argument of perigee: 238.4444°
revolutions per day: 15.19037268
mean anomaly at epoch: 121.5294°
orbit number at epoch: 9829

The dashed part of the orbit path shows where the satellite is in the earth's shadow,  

DLR